Home   Weather   Rafsanjan   Past weeks

Flag for Iran Past Weather in Rafsanjan, Iran — Yesterday and Last 2 Weeks

Now
81 °F

Sunny.


Feels Like: 79 °F
Forecast: 59 / 96 °F
Wind: 5 mph from Southwest

Location: Kerman Airport

Current Time: Sep 25, 2016 at 9:08:08 AM

Latest Report: Sep 25, 2016 at 8:20 AM


Visibility: 10 mi

Pressure: 30.09 "Hg (25.32 "Hg at 1515m altitude)

Humidity: 14%

Dew Point: 27 °F

Location of RafsanjanLocation

Past Weather in Rafsanjan — Graph

°F

Rafsanjan Temperature Yesterday

Maximum temperature yesterday: 95 °F (at 2:30 PM)
Minimum temperature yesterday: 54 °F (at 4:30 AM)
Average temperature yesterday: 76 °F

High & Low Weather Summary for the Past Weeks

 TemperatureHumidityPressure
High95 °F (Sep 15, 3:30 PM)34% (Sep 14, 2:30 AM)30.18 "Hg (Sep 14, 2:30 AM)
Low54 °F (Sep 24, 4:30 AM)1% (Sep 24, 2:30 PM)29.95 "Hg (Sep 20, 5:30 PM)
Average78 °F14%30.08 "Hg
* Reported Sep 10 7:30 AM — Sep 25 7:21 AM, Rafsanjan, Weather by CustomWeather, © 2016

Note: Actual official high and low records may vary slightly from our data, if they occured in-between our weather recording intervals... More about our weather records

Advertising

Rafsanjan Weather History for the Previous 24 Hours

Scroll right to see more
 ConditionsComfort  
Time TempWeatherWind HumidityBarometerVisibility
7:21 AM
Sun, Sep 25
68 °FSunny.No wind17%30.07 "Hg10 mi
6:30 AM59 °FSunny.2 mph18%30.04 "Hg10 mi
5:30 AM54 °FClear.No wind21%30.04 "Hg10 mi
4:30 AM55 °FClear.7 mph19%30.01 "Hg10 mi
3:30 AM57 °FClear.No wind18%30.01 "Hg10 mi
2:30 AM59 °FClear.No wind16%30.01 "Hg10 mi
1:30 AM61 °FClear.No wind15%30.01 "Hg10 mi
12:30 AM63 °FClear.5 mph14%30.01 "Hg10 mi
11:30 PM
Sat, Sep 24
66 °FClear.5 mph13%30.01 "Hg10 mi
10:30 PM72 °FClear.5 mph11%30.01 "Hg10 mi
9:30 PM72 °FClear.5 mph10%30.01 "Hg10 mi
8:30 PM81 °FClear.5 mph8%30.01 "Hg10 mi
7:30 PM82 °FClear.9 mph7%29.98 "Hg10 mi
6:30 PM84 °FClear.12 mph6%29.95 "Hg10 mi
5:30 PM90 °FSunny.7 mph5%29.95 "Hg10 mi
4:30 PM95 °FPassing clouds.7 mph4%29.95 "HgN/A
3:30 PM95 °FPassing clouds.7 mph4%29.95 "HgN/A
2:30 PM95 °FPassing clouds.7 mph1%29.98 "HgN/A
1:30 PM93 °FPassing clouds.5 mph4%29.98 "HgN/A
12:30 PM91 °FSunny.5 mph3%30.01 "Hg10 mi
11:30 AM91 °FSunny.7 mph3%30.04 "Hg10 mi
10:30 AM90 °FSunny.5 mph6%30.07 "Hg10 mi
9:30 AM84 °FSunny.5 mph7%30.07 "Hg10 mi
Weather by CustomWeather, © 2016

See weather overviewHow to use our weather pages